contact:dominique.lefevre@mio.osupytheas.fr, maurice.libes@osupytheas.fr, didier.mallarino@osupytheas.fr
Project:EMSO http://www.emso-fr.org/EMSO-France
Depth: 2436.0 m
Title:EMSO Ligure Ouest : Data MII capteur MICROCAT
DateTime_Computer,Latitude,Longitude,Temperature,Conductivity,Pressure,DateTime_Instrument
DateTime_Computer,Latitude,Longitude,degC,S m-1,dbar,DateTime_Instrument
2022-01-27T00:00:53Z,42.805,6.029,13.2997,4.60027,2470.366,2022-1-27T02:02:25Z
2022-01-27T00:03:56Z,42.805,6.029,13.2996,4.60027,2470.404,2022-1-27T02:05:28Z
2022-01-27T00:06:59Z,42.805,6.029,13.2996,4.60026,2470.39,2022-1-27T02:08:31Z
2022-01-27T00:10:02Z,42.805,6.029,13.3039,4.60052,2470.404,2022-1-27T02:11:34Z
2022-01-27T00:13:05Z,42.805,6.029,13.3020,4.60044,2470.404,2022-1-27T02:14:37Z
2022-01-27T00:16:08Z,42.805,6.029,13.3037,4.60063,2470.404,2022-1-27T02:17:40Z
2022-01-27T00:19:11Z,42.805,6.029,13.3005,4.60046,2470.427,2022-1-27T02:20:43Z
2022-01-27T00:22:14Z,42.805,6.029,13.3020,4.60056,2470.404,2022-1-27T02:23:46Z
2022-01-27T00:25:18Z,42.805,6.029,13.3025,4.60056,2470.404,2022-1-27T02:26:50Z
2022-01-27T00:28:21Z,42.805,6.029,13.3029,4.60074,2470.404,2022-1-27T02:29:53Z
2022-01-27T00:31:24Z,42.805,6.029,13.3030,4.60063,2470.404,2022-1-27T02:32:56Z
2022-01-27T00:34:27Z,42.805,6.029,13.3024,4.60066,2470.413,2022-1-27T02:35:59Z
2022-01-27T00:37:30Z,42.805,6.029,13.3010,4.60040,2470.413,2022-1-27T02:39:02Z
2022-01-27T00:40:33Z,42.805,6.029,13.3016,4.60042,2470.39,2022-1-27T02:42:05Z
2022-01-27T00:43:36Z,42.805,6.029,13.3000,4.60031,2470.413,2022-1-27T02:45:08Z
2022-01-27T00:46:39Z,42.805,6.029,13.3000,4.60036,2470.427,2022-1-27T02:48:11Z
2022-01-27T00:49:43Z,42.805,6.029,13.3008,4.60029,2470.39,2022-1-27T02:51:15Z
2022-01-27T00:52:46Z,42.805,6.029,13.3021,4.60047,2470.366,2022-1-27T02:54:18Z
2022-01-27T00:55:49Z,42.805,6.029,13.3023,4.60074,2470.404,2022-1-27T02:57:21Z
2022-01-27T00:58:52Z,42.805,6.029,13.3028,4.60064,2470.404,2022-1-27T03:00:24Z
2022-01-27T01:01:55Z,42.805,6.029,13.3014,4.60059,2470.404,2022-1-27T03:03:27Z
2022-01-27T01:04:58Z,42.805,6.029,13.3021,4.60074,2470.427,2022-1-27T03:06:30Z
2022-01-27T01:08:01Z,42.805,6.029,13.3017,4.60060,2470.427,2022-1-27T03:09:33Z
2022-01-27T01:11:04Z,42.805,6.029,13.3009,4.60063,2470.427,2022-1-27T03:12:36Z
2022-01-27T01:14:08Z,42.805,6.029,13.3030,4.60075,2470.366,2022-1-27T03:15:39Z
2022-01-27T01:17:11Z,42.805,6.029,13.3009,4.60045,2470.39,2022-1-27T03:18:43Z
2022-01-27T01:20:14Z,42.805,6.029,13.3012,4.60070,2470.39,2022-1-27T03:21:46Z
2022-01-27T01:23:17Z,42.805,6.029,13.3015,4.60064,2470.437,2022-1-27T03:24:49Z
2022-01-27T01:26:20Z,42.805,6.029,13.3027,4.60081,2470.39,2022-1-27T03:27:52Z
2022-01-27T01:29:23Z,42.805,6.029,13.3010,4.60081,2470.413,2022-1-27T03:30:55Z
2022-01-27T01:32:26Z,42.805,6.029,13.3015,4.60062,2470.39,2022-1-27T03:33:58Z
2022-01-27T01:35:29Z,42.805,6.029,13.3014,4.60070,2470.413,2022-1-27T03:37:01Z
2022-01-27T01:38:32Z,42.805,6.029,13.3015,4.60058,2470.427,2022-1-27T03:40:04Z
2022-01-27T01:41:36Z,42.805,6.029,13.3025,4.60051,2470.404,2022-1-27T03:43:08Z
2022-01-27T01:44:39Z,42.805,6.029,13.3015,4.60069,2470.39,2022-1-27T03:46:11Z
2022-01-27T01:47:42Z,42.805,6.029,13.3012,4.60067,2470.427,2022-1-27T03:49:14Z
2022-01-27T01:50:45Z,42.805,6.029,13.3012,4.60063,2470.39,2022-1-27T03:52:17Z
2022-01-27T01:53:48Z,42.805,6.029,13.3006,4.60069,2470.413,2022-1-27T03:55:20Z
2022-01-27T01:56:51Z,42.805,6.029,13.3011,4.60057,2470.413,2022-1-27T03:58:23Z
2022-01-27T01:59:54Z,42.805,6.029,13.3007,4.60063,2470.413,2022-1-27T04:01:26Z
2022-01-27T02:02:57Z,42.805,6.029,13.3020,4.60074,2470.38,2022-1-27T04:04:29Z
2022-01-27T02:06:01Z,42.805,6.029,13.3014,4.60074,2470.413,2022-1-27T04:07:33Z
2022-01-27T02:09:04Z,42.805,6.029,13.3011,4.60060,2470.366,2022-1-27T04:10:36Z
2022-01-27T02:12:07Z,42.805,6.029,13.3021,4.60060,2470.46,2022-1-27T04:13:39Z
2022-01-27T02:15:10Z,42.805,6.029,13.3011,4.60054,2470.413,2022-1-27T04:16:42Z
2022-01-27T02:18:13Z,42.805,6.029,13.3015,4.60070,2470.437,2022-1-27T04:19:45Z
2022-01-27T02:21:16Z,42.805,6.029,13.3019,4.60074,2470.413,2022-1-27T04:22:48Z
2022-01-27T02:24:19Z,42.805,6.029,13.3022,4.60073,2470.413,2022-1-27T04:25:51Z
2022-01-27T02:27:22Z,42.805,6.029,13.3015,4.60066,2470.45,2022-1-27T04:28:54Z
2022-01-27T02:30:26Z,42.805,6.029,13.3020,4.60060,2470.427,2022-1-27T04:31:58Z
2022-01-27T02:33:29Z,42.805,6.029,13.3015,4.60061,2470.413,2022-1-27T04:35:01Z
2022-01-27T02:36:32Z,42.805,6.029,13.3015,4.60070,2470.39,2022-1-27T04:38:04Z
2022-01-27T02:39:35Z,42.805,6.029,13.3024,4.60066,2470.39,2022-1-27T04:41:07Z
2022-01-27T02:42:38Z,42.805,6.029,13.3014,4.60069,2470.39,2022-1-27T04:44:10Z
2022-01-27T02:45:41Z,42.805,6.029,13.3019,4.60067,2470.39,2022-1-27T04:47:13Z
2022-01-27T02:48:44Z,42.805,6.029,13.3011,4.60053,2470.413,2022-1-27T04:50:16Z
2022-01-27T02:51:47Z,42.805,6.029,13.3014,4.60070,2470.413,2022-1-27T04:53:19Z
2022-01-27T02:54:51Z,42.805,6.029,13.3010,4.60076,2470.38,2022-1-27T04:56:23Z
2022-01-27T02:57:54Z,42.805,6.029,13.3008,4.60062,2470.427,2022-1-27T04:59:26Z
2022-01-27T03:00:57Z,42.805,6.029,13.3011,4.60054,2470.413,2022-1-27T05:02:29Z
2022-01-27T03:04:00Z,42.805,6.029,13.3010,4.60052,2470.413,2022-1-27T05:05:32Z
2022-01-27T03:07:03Z,42.805,6.029,13.3014,4.60059,2470.413,2022-1-27T05:08:35Z
2022-01-27T03:10:06Z,42.805,6.029,13.3018,4.60051,2470.39,2022-1-27T05:11:38Z
2022-01-27T03:13:09Z,42.805,6.029,13.3016,4.60058,2470.404,2022-1-27T05:14:41Z
2022-01-27T03:16:12Z,42.805,6.029,13.3015,4.60049,2470.413,2022-1-27T05:17:44Z
2022-01-27T03:19:16Z,42.805,6.029,13.3011,4.60048,2470.404,2022-1-27T05:20:48Z
2022-01-27T03:22:19Z,42.805,6.029,13.3006,4.60048,2470.413,2022-1-27T05:23:51Z
2022-01-27T03:25:22Z,42.805,6.029,13.3012,4.60050,2470.366,2022-1-27T05:26:54Z
2022-01-27T03:28:25Z,42.805,6.029,13.3015,4.60049,2470.39,2022-1-27T05:29:57Z
2022-01-27T03:31:28Z,42.805,6.029,13.3019,4.60052,2470.39,2022-1-27T05:33:00Z
2022-01-27T03:34:31Z,42.805,6.029,13.3012,4.60075,2470.39,2022-1-27T05:36:03Z
2022-01-27T03:37:34Z,42.805,6.029,13.3014,4.60055,2470.366,2022-1-27T05:39:06Z
2022-01-27T03:40:37Z,42.805,6.029,13.3011,4.60049,2470.413,2022-1-27T05:42:09Z
2022-01-27T03:43:41Z,42.805,6.029,13.3011,4.60049,2470.366,2022-1-27T05:45:12Z
2022-01-27T03:46:44Z,42.805,6.029,13.3011,4.60052,2470.437,2022-1-27T05:48:16Z
2022-01-27T03:49:47Z,42.805,6.029,13.3013,4.60062,2470.404,2022-1-27T05:51:19Z
2022-01-27T03:52:50Z,42.805,6.029,13.3006,4.60062,2470.413,2022-1-27T05:54:22Z
2022-01-27T03:55:53Z,42.805,6.029,13.3008,4.60042,2470.39,2022-1-27T05:57:25Z
2022-01-27T03:58:56Z,42.805,6.029,13.3011,4.60055,2470.39,2022-1-27T06:00:28Z
2022-01-27T04:01:59Z,42.805,6.029,13.3003,4.60049,2470.366,2022-1-27T06:03:31Z
2022-01-27T04:05:02Z,42.805,6.029,13.3012,4.60045,2470.39,2022-1-27T06:06:34Z
2022-01-27T04:08:05Z,42.805,6.029,13.3010,4.60044,2470.39,2022-1-27T06:09:37Z
2022-01-27T04:11:09Z,42.805,6.029,13.3010,4.60049,2470.357,2022-1-27T06:12:41Z
2022-01-27T04:14:12Z,42.805,6.029,13.3008,4.60041,2470.366,2022-1-27T06:15:44Z
2022-01-27T04:17:15Z,42.805,6.029,13.3010,4.60054,2470.366,2022-1-27T06:18:47Z
2022-01-27T04:20:18Z,42.805,6.029,13.3004,4.60047,2470.366,2022-1-27T06:21:50Z
2022-01-27T04:23:21Z,42.805,6.029,13.3007,4.60047,2470.366,2022-1-27T06:24:53Z
2022-01-27T04:26:24Z,42.805,6.029,13.3005,4.60050,2470.366,2022-1-27T06:27:56Z
2022-01-27T04:29:27Z,42.805,6.029,13.3008,4.60054,2470.39,2022-1-27T06:30:59Z
2022-01-27T04:32:30Z,42.805,6.029,13.3009,4.60064,2470.366,2022-1-27T06:34:02Z
2022-01-27T04:35:34Z,42.805,6.029,13.3006,4.60051,2470.39,2022-1-27T06:37:06Z
2022-01-27T04:38:37Z,42.805,6.029,13.3002,4.60041,2470.343,2022-1-27T06:40:09Z
2022-01-27T04:41:40Z,42.805,6.029,13.3004,4.60050,2470.32,2022-1-27T06:43:12Z
2022-01-27T04:44:43Z,42.805,6.029,13.3004,4.60063,2470.366,2022-1-27T06:46:15Z
2022-01-27T04:47:46Z,42.805,6.029,13.3004,4.60049,2470.343,2022-1-27T06:49:18Z
2022-01-27T04:50:49Z,42.805,6.029,13.3015,4.60046,2470.376,2022-1-27T06:52:21Z
2022-01-27T04:53:52Z,42.805,6.029,13.3014,4.60064,2470.32,2022-1-27T06:55:24Z
2022-01-27T04:56:55Z,42.805,6.029,13.3005,4.60066,2470.39,2022-1-27T06:58:27Z
2022-01-27T04:59:59Z,42.805,6.029,13.3008,4.60065,2470.39,2022-1-27T07:01:31Z
2022-01-27T05:03:02Z,42.805,6.029,13.3015,4.60065,2470.39,2022-1-27T07:04:34Z
2022-01-27T05:06:05Z,42.805,6.029,13.3009,4.60050,2470.343,2022-1-27T07:07:37Z
2022-01-27T05:09:08Z,42.805,6.029,13.3006,4.60053,2470.366,2022-1-27T07:10:40Z
2022-01-27T05:12:11Z,42.805,6.029,13.3000,4.60054,2470.366,2022-1-27T07:13:43Z
2022-01-27T05:15:14Z,42.805,6.029,13.3013,4.60064,2470.366,2022-1-27T07:16:46Z
2022-01-27T05:18:17Z,42.805,6.029,13.3009,4.60063,2470.366,2022-1-27T07:19:49Z
2022-01-27T05:21:20Z,42.805,6.029,13.3008,4.60056,2470.366,2022-1-27T07:22:52Z
2022-01-27T05:24:24Z,42.805,6.029,13.3006,4.60049,2470.357,2022-1-27T07:25:56Z
2022-01-27T05:27:27Z,42.805,6.029,13.3004,4.60049,2470.32,2022-1-27T07:28:59Z
2022-01-27T05:30:30Z,42.805,6.029,13.3006,4.60046,2470.366,2022-1-27T07:32:02Z
2022-01-27T05:33:33Z,42.805,6.029,13.3015,4.60072,2470.343,2022-1-27T07:35:05Z
2022-01-27T05:36:36Z,42.805,6.029,13.3010,4.60057,2470.334,2022-1-27T07:38:08Z
2022-01-27T05:39:39Z,42.805,6.029,13.3029,4.60073,2470.334,2022-1-27T07:41:11Z
2022-01-27T05:42:42Z,42.805,6.029,13.3006,4.60049,2470.357,2022-1-27T07:44:14Z
2022-01-27T05:45:45Z,42.805,6.029,13.3010,4.60051,2470.343,2022-1-27T07:47:17Z
2022-01-27T05:48:49Z,42.805,6.029,13.3011,4.60046,2470.39,2022-1-27T07:50:21Z
2022-01-27T05:51:52Z,42.805,6.029,13.3012,4.60053,2470.343,2022-1-27T07:53:24Z
2022-01-27T05:54:55Z,42.805,6.029,13.3011,4.60050,2470.32,2022-1-27T07:56:27Z
2022-01-27T05:57:58Z,42.805,6.029,13.3018,4.60059,2470.343,2022-1-27T07:59:30Z
2022-01-27T06:01:01Z,42.805,6.029,13.3014,4.60070,2470.343,2022-1-27T08:02:33Z
2022-01-27T06:04:04Z,42.805,6.029,13.3021,4.60064,2470.366,2022-1-27T08:05:36Z
2022-01-27T06:07:07Z,42.805,6.029,13.3017,4.60069,2470.38,2022-1-27T08:08:39Z
2022-01-27T06:10:10Z,42.805,6.029,13.3009,4.60068,2470.343,2022-1-27T08:11:42Z
2022-01-27T06:13:14Z,42.805,6.029,13.3015,4.60066,2470.287,2022-1-27T08:14:45Z
2022-01-27T06:16:17Z,42.805,6.029,13.3004,4.60046,2470.343,2022-1-27T08:17:49Z
2022-01-27T06:19:20Z,42.805,6.029,13.3004,4.60046,2470.366,2022-1-27T08:20:52Z
2022-01-27T06:22:23Z,42.805,6.029,13.3011,4.60041,2470.38,2022-1-27T08:23:55Z
2022-01-27T06:25:26Z,42.805,6.029,13.3014,4.60054,2470.357,2022-1-27T08:26:58Z
2022-01-27T06:28:29Z,42.805,6.029,13.3018,4.60066,2470.32,2022-1-27T08:30:01Z
2022-01-27T06:31:32Z,42.805,6.029,13.3024,4.60069,2470.357,2022-1-27T08:33:04Z
2022-01-27T06:34:35Z,42.805,6.029,13.3018,4.60082,2470.357,2022-1-27T08:36:07Z
2022-01-27T06:37:39Z,42.805,6.029,13.3009,4.60080,2470.334,2022-1-27T08:39:10Z
2022-01-27T06:40:42Z,42.805,6.029,13.3019,4.60078,2470.32,2022-1-27T08:42:14Z
2022-01-27T06:43:45Z,42.805,6.029,13.3032,4.60063,2470.334,2022-1-27T08:45:17Z
2022-01-27T06:46:48Z,42.805,6.029,13.3028,4.60089,2470.334,2022-1-27T08:48:20Z
2022-01-27T06:49:51Z,42.805,6.029,13.3014,4.60074,2470.32,2022-1-27T08:51:23Z
2022-01-27T06:52:54Z,42.805,6.029,13.3021,4.60068,2470.334,2022-1-27T08:54:26Z
2022-01-27T06:55:57Z,42.805,6.029,13.3015,4.60070,2470.343,2022-1-27T08:57:29Z
2022-01-27T06:59:00Z,42.805,6.029,13.3007,4.60046,2470.343,2022-1-27T09:00:32Z
2022-01-27T07:02:03Z,42.805,6.029,13.3021,4.60079,2470.343,2022-1-27T09:03:35Z
2022-01-27T07:05:07Z,42.805,6.029,13.3031,4.60080,2470.357,2022-1-27T09:06:39Z
2022-01-27T07:08:10Z,42.805,6.029,13.3040,4.60072,2470.343,2022-1-27T09:09:42Z
2022-01-27T07:11:13Z,42.805,6.029,13.3007,4.60058,2470.32,2022-1-27T09:12:45Z
2022-01-27T07:14:16Z,42.805,6.029,13.3011,4.60058,2470.38,2022-1-27T09:15:48Z
2022-01-27T07:17:19Z,42.805,6.029,13.3022,4.60074,2470.31,2022-1-27T09:18:51Z
2022-01-27T07:20:22Z,42.805,6.029,13.3017,4.60067,2470.32,2022-1-27T09:21:54Z
2022-01-27T07:23:25Z,42.805,6.029,13.3019,4.60052,2470.287,2022-1-27T09:24:57Z
2022-01-27T07:26:28Z,42.805,6.029,13.3008,4.60052,2470.31,2022-1-27T09:28:00Z
2022-01-27T07:29:32Z,42.805,6.029,13.3014,4.60064,2470.25,2022-1-27T09:31:04Z
2022-01-27T07:32:35Z,42.805,6.029,13.3014,4.60062,2470.287,2022-1-27T09:34:07Z
2022-01-27T07:35:38Z,42.805,6.029,13.3014,4.60065,2470.273,2022-1-27T09:37:10Z
2022-01-27T07:38:41Z,42.805,6.029,13.3026,4.60068,2470.264,2022-1-27T09:40:13Z
2022-01-27T07:41:44Z,42.805,6.029,13.3026,4.60077,2470.297,2022-1-27T09:43:16Z
2022-01-27T07:44:47Z,42.805,6.029,13.3017,4.60084,2470.297,2022-1-27T09:46:19Z
2022-01-27T07:47:50Z,42.805,6.029,13.3012,4.60092,2470.32,2022-1-27T09:49:22Z
2022-01-27T07:50:53Z,42.805,6.029,13.3041,4.60081,2470.273,2022-1-27T09:52:25Z
2022-01-27T07:53:57Z,42.805,6.029,13.3040,4.60066,2470.32,2022-1-27T09:55:29Z
2022-01-27T07:57:00Z,42.805,6.029,13.3029,4.60087,2470.297,2022-1-27T09:58:32Z
2022-01-27T08:00:03Z,42.805,6.029,13.3021,4.60082,2470.287,2022-1-27T10:01:35Z
2022-01-27T08:03:06Z,42.805,6.029,13.3008,4.60058,2470.24,2022-1-27T10:04:38Z
2022-01-27T08:06:09Z,42.805,6.029,13.3011,4.60067,2470.273,2022-1-27T10:07:41Z
2022-01-27T08:09:12Z,42.805,6.029,13.3024,4.60064,2470.25,2022-1-27T10:10:44Z
2022-01-27T08:12:15Z,42.805,6.029,13.3029,4.60089,2470.25,2022-1-27T10:13:47Z
2022-01-27T08:15:18Z,42.805,6.029,13.3024,4.60091,2470.273,2022-1-27T10:16:50Z
2022-01-27T08:18:22Z,42.805,6.029,13.3034,4.60059,2470.273,2022-1-27T10:19:54Z
2022-01-27T08:21:25Z,42.805,6.029,13.3041,4.60114,2470.273,2022-1-27T10:22:57Z
2022-01-27T08:24:28Z,42.805,6.029,13.3036,4.60112,2470.287,2022-1-27T10:26:00Z
2022-01-27T08:27:31Z,42.805,6.029,13.3048,4.60097,2470.287,2022-1-27T10:29:03Z
2022-01-27T08:30:34Z,42.805,6.029,13.3026,4.60133,2470.287,2022-1-27T10:32:06Z
2022-01-27T08:33:37Z,42.805,6.029,13.3026,4.60112,2470.264,2022-1-27T10:35:09Z
2022-01-27T08:36:40Z,42.805,6.029,13.3048,4.60075,2470.227,2022-1-27T10:38:12Z
2022-01-27T08:39:43Z,42.805,6.029,13.3034,4.60092,2470.273,2022-1-27T10:41:15Z
2022-01-27T08:42:47Z,42.805,6.029,13.3067,4.60090,2470.24,2022-1-27T10:44:19Z
2022-01-27T08:45:50Z,42.805,6.029,13.3029,4.60111,2470.273,2022-1-27T10:47:22Z
2022-01-27T08:48:53Z,42.805,6.029,13.3036,4.60084,2470.273,2022-1-27T10:50:25Z
2022-01-27T08:51:56Z,42.805,6.029,13.3028,4.60115,2470.287,2022-1-27T10:53:28Z
2022-01-27T08:54:59Z,42.805,6.029,13.3034,4.60092,2470.297,2022-1-27T10:56:31Z
2022-01-27T08:58:02Z,42.805,6.029,13.3073,4.60070,2470.264,2022-1-27T10:59:34Z
2022-01-27T09:01:05Z,42.805,6.029,13.3051,4.60100,2470.287,2022-1-27T11:02:37Z
2022-01-27T09:04:09Z,42.805,6.029,13.3044,4.60059,2470.264,2022-1-27T11:05:41Z
2022-01-27T09:07:12Z,42.805,6.029,13.3032,4.60123,2470.25,2022-1-27T11:08:44Z
2022-01-27T09:10:15Z,42.805,6.029,13.3052,4.60112,2470.203,2022-1-27T11:11:47Z
2022-01-27T09:13:18Z,42.805,6.029,13.3031,4.60112,2470.24,2022-1-27T11:14:50Z
2022-01-27T09:16:21Z,42.805,6.029,13.3056,4.60109,2470.227,2022-1-27T11:17:53Z
2022-01-27T09:19:24Z,42.805,6.029,13.3060,4.60093,2470.24,2022-1-27T11:20:56Z
2022-01-27T09:22:27Z,42.805,6.029,13.3069,4.60120,2470.287,2022-1-27T11:23:59Z
2022-01-27T09:25:30Z,42.805,6.029,13.3043,4.60109,2470.25,2022-1-27T11:27:02Z
2022-01-27T09:28:34Z,42.805,6.029,13.3050,4.60109,2470.273,2022-1-27T11:30:06Z
2022-01-27T09:31:37Z,42.805,6.029,13.3068,4.60081,2470.24,2022-1-27T11:33:09Z
2022-01-27T09:34:40Z,42.805,6.029,13.3073,4.60069,2470.24,2022-1-27T11:36:12Z
2022-01-27T09:37:43Z,42.805,6.029,13.3048,4.60081,2470.203,2022-1-27T11:39:15Z
2022-01-27T09:40:46Z,42.805,6.029,13.3034,4.60066,2470.24,2022-1-27T11:42:18Z
2022-01-27T09:43:49Z,42.805,6.029,13.3039,4.60055,2470.227,2022-1-27T11:45:21Z
2022-01-27T09:46:52Z,42.805,6.029,13.3032,4.60096,2470.227,2022-1-27T11:48:24Z
2022-01-27T09:49:55Z,42.805,6.029,13.3068,4.60064,2470.25,2022-1-27T11:51:27Z
2022-01-27T09:52:59Z,42.805,6.029,13.3056,4.60068,2470.227,2022-1-27T11:54:31Z
2022-01-27T09:56:02Z,42.805,6.029,13.3039,4.60053,2470.264,2022-1-27T11:57:34Z
2022-01-27T09:59:05Z,42.805,6.029,13.3031,4.60062,2470.24,2022-1-27T12:00:37Z
2022-01-27T10:02:08Z,42.805,6.029,13.3034,4.60069,2470.264,2022-1-27T12:03:40Z
2022-01-27T10:05:11Z,42.805,6.029,13.3042,4.60068,2470.25,2022-1-27T12:06:43Z
2022-01-27T10:08:14Z,42.805,6.029,13.3037,4.60067,2470.24,2022-1-27T12:09:46Z
2022-01-27T10:11:17Z,42.805,6.029,13.3013,4.60073,2470.227,2022-1-27T12:12:49Z
2022-01-27T10:14:20Z,42.805,6.029,13.3034,4.60072,2470.227,2022-1-27T12:15:52Z
2022-01-27T10:17:24Z,42.805,6.029,13.3028,4.60073,2470.217,2022-1-27T12:18:56Z
2022-01-27T10:20:27Z,42.805,6.029,13.3070,4.60058,2470.217,2022-1-27T12:21:59Z
2022-01-27T10:23:30Z,42.805,6.029,13.3030,4.60046,2470.156,2022-1-27T12:25:02Z
2022-01-27T10:26:33Z,42.805,6.029,13.3031,4.60041,2470.203,2022-1-27T12:28:05Z
2022-01-27T10:29:36Z,42.805,6.029,13.3026,4.60043,2470.18,2022-1-27T12:31:08Z
2022-01-27T10:32:39Z,42.805,6.029,13.3039,4.60045,2470.203,2022-1-27T12:34:11Z
2022-01-27T10:35:42Z,42.805,6.029,13.3051,4.60051,2470.217,2022-1-27T12:37:14Z
2022-01-27T10:38:45Z,42.805,6.029,13.3024,4.60049,2470.217,2022-1-27T12:40:17Z
2022-01-27T10:41:49Z,42.805,6.029,13.3031,4.60049,2470.227,2022-1-27T12:43:21Z
2022-01-27T10:44:52Z,42.805,6.029,13.3029,4.60094,2470.217,2022-1-27T12:46:24Z
2022-01-27T10:47:55Z,42.805,6.029,13.3029,4.60056,2470.203,2022-1-27T12:49:27Z
2022-01-27T10:50:58Z,42.805,6.029,13.3031,4.60069,2470.24,2022-1-27T12:52:30Z
2022-01-27T10:54:01Z,42.805,6.029,13.3027,4.60059,2470.217,2022-1-27T12:55:33Z
2022-01-27T10:57:04Z,42.805,6.029,13.3058,4.60058,2470.217,2022-1-27T12:58:36Z
2022-01-27T11:00:07Z,42.805,6.029,13.3048,4.60056,2470.217,2022-1-27T13:01:39Z
2022-01-27T11:03:10Z,42.805,6.029,13.3051,4.60064,2470.194,2022-1-27T13:04:42Z
2022-01-27T11:06:14Z,42.805,6.029,13.3056,4.60052,2470.231,2022-1-27T13:07:46Z
2022-01-27T11:09:17Z,42.805,6.029,13.3036,4.60074,2470.217,2022-1-27T13:10:49Z
2022-01-27T11:12:20Z,42.805,6.029,13.3048,4.60062,2470.217,2022-1-27T13:13:52Z
2022-01-27T11:15:23Z,42.805,6.029,13.3066,4.60095,2470.24,2022-1-27T13:16:55Z
2022-01-27T11:18:26Z,42.805,6.029,13.3058,4.60046,2470.24,2022-1-27T13:19:58Z
2022-01-27T11:21:29Z,42.805,6.029,13.3058,4.60055,2470.217,2022-1-27T13:23:01Z
2022-01-27T11:24:32Z,42.805,6.029,13.3056,4.60053,2470.194,2022-1-27T13:26:04Z
2022-01-27T11:27:35Z,42.805,6.029,13.3043,4.60057,2470.24,2022-1-27T13:29:07Z
2022-01-27T11:30:39Z,42.805,6.029,13.3031,4.60069,2470.18,2022-1-27T13:32:11Z
2022-01-27T11:33:42Z,42.805,6.029,13.3041,4.60063,2470.203,2022-1-27T13:35:14Z
2022-01-27T11:36:45Z,42.805,6.029,13.3053,4.60070,2470.156,2022-1-27T13:38:17Z
2022-01-27T11:39:48Z,42.805,6.029,13.3098,4.60068,2470.194,2022-1-27T13:41:20Z
2022-01-27T11:42:51Z,42.805,6.029,13.3076,4.60067,2470.24,2022-1-27T13:44:23Z
2022-01-27T11:45:54Z,42.805,6.029,13.3053,4.60052,2470.18,2022-1-27T13:47:26Z
2022-01-27T11:48:57Z,42.805,6.029,13.3051,4.60067,2470.194,2022-1-27T13:50:29Z
2022-01-27T11:52:01Z,42.805,6.029,13.3056,4.60085,2470.203,2022-1-27T13:53:33Z
2022-01-27T11:55:04Z,42.805,6.029,13.3069,4.60087,2470.18,2022-1-27T13:56:36Z
2022-01-27T11:58:07Z,42.805,6.029,13.3069,4.60103,2470.203,2022-1-27T13:59:39Z
2022-01-27T12:01:10Z,42.805,6.029,13.3059,4.60059,2470.194,2022-1-27T14:02:42Z
2022-01-27T12:04:13Z,42.805,6.029,13.3059,4.60056,2470.227,2022-1-27T14:05:45Z
2022-01-27T12:07:16Z,42.805,6.029,13.3058,4.60057,2470.203,2022-1-27T14:08:48Z
2022-01-27T12:10:19Z,42.805,6.029,13.3055,4.60070,2470.24,2022-1-27T14:11:51Z
2022-01-27T12:13:22Z,42.805,6.029,13.3050,4.60057,2470.227,2022-1-27T14:14:54Z
2022-01-27T12:16:26Z,42.805,6.029,13.3042,4.60062,2470.189,2022-1-27T14:17:58Z
2022-01-27T12:19:29Z,42.805,6.029,13.3062,4.60069,2470.203,2022-1-27T14:21:01Z
2022-01-27T12:22:32Z,42.805,6.029,13.3073,4.60064,2470.24,2022-1-27T14:24:04Z
2022-01-27T12:25:35Z,42.805,6.029,13.3053,4.60052,2470.227,2022-1-27T14:27:07Z
2022-01-27T12:28:38Z,42.805,6.029,13.3066,4.60057,2470.24,2022-1-27T14:30:10Z
2022-01-27T12:31:41Z,42.805,6.029,13.3054,4.60058,2470.264,2022-1-27T14:33:13Z
2022-01-27T12:34:44Z,42.805,6.029,13.3061,4.60052,2470.24,2022-1-27T14:36:16Z
2022-01-27T12:37:47Z,42.805,6.029,13.3054,4.60057,2470.18,2022-1-27T14:39:19Z
2022-01-27T12:40:51Z,42.805,6.029,13.3058,4.60057,2470.217,2022-1-27T14:42:23Z
2022-01-27T12:43:54Z,42.805,6.029,13.3054,4.60057,2470.24,2022-1-27T14:45:26Z
2022-01-27T12:46:57Z,42.805,6.029,13.3052,4.60056,2470.203,2022-1-27T14:48:29Z
2022-01-27T12:50:00Z,42.805,6.029,13.3051,4.60072,2470.217,2022-1-27T14:51:32Z
2022-01-27T12:53:03Z,42.805,6.029,13.3054,4.60050,2470.264,2022-1-27T14:54:35Z
2022-01-27T12:56:06Z,42.805,6.029,13.3083,4.60063,2470.24,2022-1-27T14:57:38Z
2022-01-27T12:59:09Z,42.805,6.029,13.3056,4.60062,2470.264,2022-1-27T15:00:41Z
2022-01-27T13:02:12Z,42.805,6.029,13.3052,4.60051,2470.203,2022-1-27T15:03:44Z
2022-01-27T13:05:16Z,42.805,6.029,13.3049,4.60064,2470.227,2022-1-27T15:06:48Z
2022-01-27T13:08:19Z,42.805,6.029,13.3074,4.60062,2470.227,2022-1-27T15:09:51Z
2022-01-27T13:11:22Z,42.805,6.029,13.3067,4.60064,2470.227,2022-1-27T15:12:54Z
2022-01-27T13:14:25Z,42.805,6.029,13.3063,4.60061,2470.264,2022-1-27T15:15:57Z
2022-01-27T13:17:28Z,42.805,6.029,13.3054,4.60062,2470.24,2022-1-27T15:19:00Z
2022-01-27T13:20:31Z,42.805,6.029,13.3066,4.60079,2470.227,2022-1-27T15:22:03Z
2022-01-27T13:23:34Z,42.805,6.029,13.3056,4.60070,2470.203,2022-1-27T15:25:06Z
2022-01-27T13:26:37Z,42.805,6.029,13.3066,4.60125,2470.227,2022-1-27T15:28:09Z
2022-01-27T13:29:41Z,42.805,6.029,13.3064,4.60087,2470.24,2022-1-27T15:31:13Z
2022-01-27T13:32:44Z,42.805,6.029,13.3072,4.60057,2470.25,2022-1-27T15:34:16Z
2022-01-27T13:35:47Z,42.805,6.029,13.3068,4.60069,2470.203,2022-1-27T15:37:19Z
2022-01-27T13:38:50Z,42.805,6.029,13.3072,4.60067,2470.25,2022-1-27T15:40:22Z
2022-01-27T13:41:53Z,42.805,6.029,13.3069,4.60067,2470.217,2022-1-27T15:43:25Z
2022-01-27T13:44:56Z,42.805,6.029,13.3065,4.60064,2470.264,2022-1-27T15:46:28Z
2022-01-27T13:47:59Z,42.805,6.029,13.3072,4.60053,2470.264,2022-1-27T15:49:31Z
2022-01-27T13:51:03Z,42.805,6.029,13.3070,4.60072,2470.24,2022-1-27T15:52:35Z
2022-01-27T13:54:06Z,42.805,6.029,13.3056,4.60090,2470.273,2022-1-27T15:55:38Z
2022-01-27T13:57:09Z,42.805,6.029,13.3064,4.60074,2470.264,2022-1-27T15:58:41Z
2022-01-27T14:00:12Z,42.805,6.029,13.3067,4.60065,2470.227,2022-1-27T16:01:44Z
2022-01-27T14:03:15Z,42.805,6.029,13.3082,4.60099,2470.264,2022-1-27T16:04:47Z
2022-01-27T14:06:18Z,42.805,6.029,13.3065,4.60089,2470.25,2022-1-27T16:07:50Z
2022-01-27T14:09:21Z,42.805,6.029,13.3073,4.60066,2470.264,2022-1-27T16:10:53Z
2022-01-27T14:12:24Z,42.805,6.029,13.3063,4.60069,2470.31,2022-1-27T16:13:56Z
2022-01-27T14:15:28Z,42.805,6.029,13.3058,4.60069,2470.287,2022-1-27T16:17:00Z
2022-01-27T14:18:31Z,42.805,6.029,13.3058,4.60039,2470.287,2022-1-27T16:20:03Z
2022-01-27T14:21:34Z,42.805,6.029,13.3058,4.60040,2470.287,2022-1-27T16:23:06Z
2022-01-27T14:24:37Z,42.805,6.029,13.3061,4.60052,2470.264,2022-1-27T16:26:09Z
2022-01-27T14:27:40Z,42.805,6.029,13.3035,4.60040,2470.31,2022-1-27T16:29:12Z
2022-01-27T14:30:43Z,42.805,6.029,13.3011,4.60051,2470.25,2022-1-27T16:32:15Z
2022-01-27T14:33:46Z,42.805,6.029,13.3018,4.60062,2470.25,2022-1-27T16:35:18Z
2022-01-27T14:36:49Z,42.805,6.029,13.3003,4.60034,2470.264,2022-1-27T16:38:21Z
2022-01-27T14:39:53Z,42.805,6.029,13.3004,4.60029,2470.287,2022-1-27T16:41:25Z
2022-01-27T14:42:56Z,42.805,6.029,13.3007,4.60026,2470.32,2022-1-27T16:44:28Z
2022-01-27T14:45:59Z,42.805,6.029,13.3000,4.60032,2470.334,2022-1-27T16:47:31Z
2022-01-27T14:49:02Z,42.805,6.029,13.2998,4.60037,2470.25,2022-1-27T16:50:34Z
2022-01-27T14:52:05Z,42.805,6.029,13.2997,4.60041,2470.287,2022-1-27T16:53:37Z
2022-01-27T14:55:08Z,42.805,6.029,13.2998,4.60031,2470.273,2022-1-27T16:56:40Z
2022-01-27T14:58:11Z,42.805,6.029,13.2997,4.60026,2470.297,2022-1-27T16:59:43Z
2022-01-27T15:01:14Z,42.805,6.029,13.2998,4.60029,2470.25,2022-1-27T17:02:46Z
2022-01-27T15:04:18Z,42.805,6.029,13.3004,4.60024,2470.297,2022-1-27T17:05:50Z
2022-01-27T15:07:21Z,42.805,6.029,13.3005,4.60024,2470.287,2022-1-27T17:08:53Z
2022-01-27T15:10:24Z,42.805,6.029,13.3007,4.60027,2470.273,2022-1-27T17:11:56Z
2022-01-27T15:13:27Z,42.805,6.029,13.3002,4.60024,2470.273,2022-1-27T17:14:59Z